| time (UTC) | temp F | wind direction | speed MPH | gust MPH | rain 1hr in | rain 24hr in | rain mn in | humidity % | barometer mb |
| 20260510153703 | 66 | 37 | 6.0 | 10.0 | 0.00 | 0.00 | 0.00 | 42 | 1000.0 |
| 20260510153204 | 66 | 37 | 6.0 | 9.0 | 0.00 | 0.00 | 0.00 | 43 | 1000.0 |
| 20260510152704 | 66 | 38 | 4.0 | 9.0 | 0.00 | 0.00 | 0.00 | 44 | 1000.0 |
| 20260510152204 | 66 | 24 | 6.0 | 9.0 | 0.00 | 0.00 | 0.00 | 44 | 1000.0 |
| 20260510151704 | 66 | 37 | 4.0 | 10.0 | 0.00 | 0.00 | 0.00 | 44 | 1000.0 |
| 20260510150704 | 65 | 32 | 4.0 | 13.0 | 0.00 | 0.00 | 0.00 | 45 | 1000.0 |
| 20260510145704 | 65 | 31 | 3.0 | 9.0 | 0.00 | 0.00 | 0.00 | 48 | 1000.0 |
| 20260510145204 | 64 | 10 | 5.0 | 9.0 | 0.00 | 0.00 | 0.00 | 48 | 1000.0 |
| 20260510144703 | 64 | 18 | 5.0 | 9.0 | 0.00 | 0.00 | 0.00 | 48 | 1000.0 |
| 20260510144203 | 64 | 20 | 6.0 | 12.0 | 0.00 | 0.00 | 0.00 | 46 | 1000.0 |
| 20260510143204 | 64 | 25 | 5.0 | 9.0 | 0.00 | 0.00 | 0.00 | 48 | 1000.0 |
| 20260510142703 | 64 | 26 | 5.0 | 10.0 | 0.00 | 0.00 | 0.00 | 47 | 1000.0 |
| 20260510142204 | 64 | 34 | 5.0 | 8.0 | 0.00 | 0.00 | 0.00 | 48 | 1000.0 |
| 20260510141704 | 64 | 11 | 5.0 | 9.0 | 0.00 | 0.00 | 0.00 | 48 | 1000.0 |
| 20260510141203 | 64 | 43 | 5.0 | 9.0 | 0.00 | 0.00 | 0.00 | 50 | 1000.0 |
| 20260510140203 | 62 | 28 | 6.0 | 9.0 | 0.00 | 0.00 | 0.00 | 50 | 1000.0 |
| 20260510135703 | 62 | 29 | 5.0 | 9.0 | 0.00 | 0.00 | 0.00 | 51 | 1000.0 |
| 20260510134704 | 63 | 27 | 5.0 | 9.0 | 0.00 | 0.00 | 0.00 | 52 | 1000.0 |
| 20260510134203 | 63 | 32 | 3.0 | 10.0 | 0.00 | 0.00 | 0.00 | 53 | 1000.0 |
| 20260510133704 | 63 | 14 | 5.0 | 10.0 | 0.00 | 0.00 | 0.00 | 52 | 1000.0 |
| 20260510133204 | 63 | 34 | 5.0 | 13.0 | 0.00 | 0.00 | 0.00 | 52 | 1000.0 |
| 20260510132704 | 62 | 26 | 6.0 | 12.0 | 0.00 | 0.00 | 0.00 | 52 | 1000.0 |
| 20260510132203 | 62 | 27 | 6.0 | 12.0 | 0.00 | 0.00 | 0.00 | 54 | 1000.0 |
| 20260510131704 | 62 | 56 | 3.0 | 12.0 | 0.00 | 0.00 | 0.00 | 54 | 1000.0 |
| 20260510130703 | 62 | 31 | 6.0 | 12.0 | 0.00 | 0.00 | 0.00 | 53 | 1000.0 |
| 20260510130204 | 62 | 34 | 7.0 | 13.0 | 0.00 | 0.00 | 0.00 | 53 | 1000.0 |
| 20260510125705 | 62 | 43 | 5.0 | 9.0 | 0.00 | 0.00 | 0.00 | 54 | 1000.0 |
| 20260510125203 | 62 | 40 | 4.0 | 9.0 | 0.00 | 0.00 | 0.00 | 56 | 1000.0 |
| 20260510124704 | 61 | 40 | 6.0 | 10.0 | 0.00 | 0.00 | 0.00 | 56 | 1000.0 |
| 20260510124203 | 61 | 13 | 6.0 | 12.0 | 0.00 | 0.00 | 0.00 | 56 | 1000.0 |
| 20260510123703 | 61 | 45 | 5.0 | 10.0 | 0.00 | 0.00 | 0.00 | 58 | 1000.0 |
| 20260510123203 | 61 | 20 | 5.0 | 9.0 | 0.00 | 0.00 | 0.00 | 58 | 1000.0 |
| 20260510122704 | 61 | 13 | 5.0 | 13.0 | 0.00 | 0.00 | 0.00 | 60 | 1000.0 |
| 20260510122203 | 61 | 18 | 3.0 | 9.0 | 0.00 | 0.00 | 0.00 | 61 | 1000.0 |
| 20260510121703 | 61 | 22 | 6.0 | 9.0 | 0.00 | 0.00 | 0.00 | 62 | 1000.0 |
| 20260510121204 | 61 | 26 | 6.0 | 12.0 | 0.00 | 0.00 | 0.00 | 61 | 1000.0 |
| 20260510120704 | 61 | 49 | 5.0 | 8.0 | 0.00 | 0.00 | 0.00 | 62 | 1000.0 |
| 20260510120204 | 61 | 46 | 3.0 | 9.0 | 0.00 | 0.00 | 0.00 | 62 | 1000.0 |
| 20260510115703 | 61 | 30 | 3.0 | 9.0 | 0.00 | 0.00 | 0.00 | 63 | 1000.0 |
| 20260510115203 | 61 | 26 | 4.0 | 8.0 | 0.00 | 0.00 | 0.00 | 63 | 1000.0 |
| 20260510114703 | 61 | 26 | 5.0 | 9.0 | 0.00 | 0.00 | 0.00 | 64 | 1000.0 |
| 20260510113704 | 61 | 35 | 4.0 | 10.0 | 0.00 | 0.00 | 0.00 | 64 | 1000.0 |
| 20260510113203 | 61 | 34 | 6.0 | 9.0 | 0.00 | 0.00 | 0.00 | 64 | 1000.0 |
| 20260510112703 | 62 | 19 | 5.0 | 10.0 | 0.00 | 0.00 | 0.00 | 65 | 1000.0 |
| 20260510112204 | 61 | 16 | 5.0 | 10.0 | 0.00 | 0.00 | 0.00 | 66 | 1000.0 |
| 20260510111703 | 62 | 23 | 5.0 | 9.0 | 0.00 | 0.00 | 0.00 | 67 | 1000.0 |
| 20260510111204 | 62 | 45 | 3.0 | 12.0 | 0.00 | 0.00 | 0.00 | 68 | 1000.0 |
| 20260510110704 | 62 | 29 | 6.0 | 8.0 | 0.00 | 0.00 | 0.00 | 69 | 1000.0 |
| 20260510110203 | 62 | 17 | 5.0 | 8.0 | 0.00 | 0.00 | 0.00 | 70 | 1000.0 |
| 20260510105704 | 62 | 22 | 6.0 | 12.0 | 0.00 | 0.00 | 0.00 | 70 | 1000.0 |
| 20260510105204 | 62 | 20 | 5.0 | 10.0 | 0.00 | 0.00 | 0.00 | 70 | 1000.0 |
| 20260510104703 | 62 | 7 | 4.0 | 12.0 | 0.00 | 0.00 | 0.00 | 72 | 1000.0 |
| 20260510104203 | 63 | 18 | 6.0 | 12.0 | 0.00 | 0.00 | 0.00 | 72 | 1000.0 |
| 20260510103704 | 63 | 48 | 2.0 | 7.0 | 0.00 | 0.00 | 0.00 | 72 | 1000.0 |
| 20260510103204 | 63 | 21 | 4.0 | 9.0 | 0.00 | 0.01 | 0.00 | 71 | 1000.0 |
| 20260510102704 | 63 | 13 | 6.0 | 12.0 | 0.00 | 0.01 | 0.00 | 70 | 1000.0 |
| 20260510101204 | 63 | 4 | 2.0 | 6.0 | 0.00 | 0.01 | 0.00 | 76 | 1000.0 |
| 20260510100704 | 63 | 342 | 4.0 | 7.0 | 0.00 | 0.01 | 0.00 | 77 | 1000.0 |
| 20260510100204 | 63 | 351 | 2.0 | 6.0 | 0.00 | 0.01 | 0.00 | 78 | 1000.0 |
| 20260510095704 | 63 | 353 | 2.0 | 5.0 | 0.00 | 0.01 | 0.00 | 78 | 1000.0 |
| 20260510095203 | 63 | 22 | 3.0 | 5.0 | 0.00 | 0.01 | 0.00 | 78 | 1000.0 |
| 20260510094703 | 64 | 12 | 2.0 | 3.0 | 0.00 | 0.01 | 0.00 | 79 | 1000.0 |
| 20260510094204 | 64 | 6 | 1.0 | 3.0 | 0.00 | 0.01 | 0.00 | 80 | 1000.0 |
| 20260510093704 | 64 | 5 | 1.0 | 3.0 | 0.00 | 0.01 | 0.00 | 81 | 1000.0 |
| 20260510093203 | 64 | 349 | 2.0 | 5.0 | 0.00 | 0.01 | 0.00 | 81 | 1000.0 |
| 20260510092703 | 64 | 16 | 2.0 | 3.0 | 0.00 | 0.01 | 0.00 | 81 | 1000.0 |
| 20260510092204 | 64 | 31 | 2.0 | 3.0 | 0.00 | 0.01 | 0.00 | 81 | 1000.0 |
| 20260510091703 | 64 | 16 | 1.0 | 3.0 | 0.00 | 0.01 | 0.00 | 80 | 1000.0 |
| 20260510091204 | 64 | 91 | 2.0 | 3.0 | 0.00 | 0.01 | 0.00 | 80 | 1000.0 |
| 20260510090704 | 64 | 51 | 1.0 | 3.0 | 0.00 | 0.01 | 0.00 | 79 | 1000.0 |
| 20260510090204 | 64 | 113 | 1.0 | 2.0 | 0.00 | 0.01 | 0.00 | 78 | 1000.0 |
| 20260510085703 | 64 | 72 | 0.0 | 1.0 | 0.00 | 0.01 | 0.00 | 78 | 1000.0 |
| 20260510085204 | 64 | 39 | 0.0 | 2.0 | 0.00 | 0.01 | 0.00 | 78 | 1000.0 |
| 20260510084704 | 65 | 57 | 0.0 | 5.0 | 0.00 | 0.01 | 0.00 | 78 | 1000.0 |
| 20260510084203 | 65 | 69 | 1.0 | 6.0 | 0.00 | 0.01 | 0.00 | 77 | 1000.0 |
| 20260510083703 | 65 | 79 | 2.0 | 5.0 | 0.00 | 0.01 | 0.00 | 76 | 1000.0 |
| 20260510083203 | 65 | 64 | 2.0 | 5.0 | 0.00 | 0.01 | 0.00 | 76 | 1000.0 |
| 20260510082204 | 65 | 40 | 2.0 | 5.0 | 0.00 | 0.01 | 0.00 | 75 | 1000.0 |
| 20260510081703 | 65 | 42 | 3.0 | 7.0 | 0.00 | 0.01 | 0.00 | 75 | 1000.0 |
| 20260510081204 | 65 | 46 | 2.0 | 6.0 | 0.00 | 0.01 | 0.00 | 75 | 1000.0 |
| 20260510080704 | 65 | 7 | 3.0 | 6.0 | 0.00 | 0.01 | 0.00 | 75 | 1000.0 |
| 20260510080203 | 65 | 27 | 4.0 | 8.0 | 0.00 | 0.01 | 0.00 | 74 | 1000.0 |
| 20260510075704 | 65 | 33 | 3.0 | 7.0 | 0.00 | 0.01 | 0.00 | 74 | 1000.0 |
| 20260510075204 | 65 | 26 | 3.0 | 8.0 | 0.00 | 0.01 | 0.00 | 74 | 1000.0 |
| 20260510074703 | 65 | 32 | 5.0 | 9.0 | 0.00 | 0.01 | 0.00 | 73 | 1000.0 |
| 20260510074204 | 65 | 25 | 4.0 | 7.0 | 0.00 | 0.01 | 0.00 | 73 | 1000.0 |
| 20260510073704 | 65 | 38 | 5.0 | 9.0 | 0.00 | 0.01 | 0.00 | 73 | 1000.0 |
| 20260510073203 | 65 | 29 | 5.0 | 8.0 | 0.00 | 0.01 | 0.00 | 72 | 1000.0 |
| 20260510072703 | 66 | 27 | 3.0 | 9.0 | 0.00 | 0.01 | 0.00 | 72 | 1000.0 |
| 20260510071704 | 66 | 29 | 5.0 | 7.0 | 0.00 | 0.01 | 0.00 | 72 | 1000.0 |
| 20260510071203 | 66 | 357 | 4.0 | 9.0 | 0.00 | 0.01 | 0.00 | 72 | 1000.0 |
| 20260510070704 | 66 | 25 | 6.0 | 10.0 | 0.00 | 0.01 | 0.00 | 72 | 1000.0 |
| 20260510070204 | 66 | 33 | 3.0 | 9.0 | 0.00 | 0.01 | 0.00 | 73 | 1000.0 |
| 20260510065703 | 66 | 9 | 2.0 | 7.0 | 0.00 | 0.01 | 0.00 | 73 | 1000.0 |
| 20260510065204 | 66 | 10 | 3.0 | 7.0 | 0.00 | 0.01 | 0.00 | 73 | 1000.0 |
| 20260510064203 | 66 | 30 | 5.0 | 9.0 | 0.00 | 0.01 | 0.00 | 73 | 1000.0 |
| 20260510063204 | 66 | 16 | 5.0 | 9.0 | 0.00 | 0.01 | 0.00 | 74 | 1000.0 |
| 20260510062704 | 67 | 12 | 4.0 | 8.0 | 0.00 | 0.01 | 0.00 | 74 | 1000.0 |
| 20260510062204 | 67 | 9 | 5.0 | 10.0 | 0.00 | 0.01 | 0.00 | 74 | 1000.0 |
| 20260510061704 | 67 | 357 | 5.0 | 9.0 | 0.00 | 0.01 | 0.00 | 73 | 1000.0 |
| 20260510061204 | 67 | 350 | 3.0 | 8.0 | 0.00 | 0.01 | 0.00 | 74 | 1000.0 |
| 20260510060704 | 67 | 354 | 5.0 | 9.0 | 0.00 | 0.01 | 0.00 | 74 | 1000.0 |
| 20260510060203 | 67 | 358 | 5.0 | 10.0 | 0.00 | 0.01 | 0.00 | 72 | 1000.0 |
| 20260510055704 | 67 | 351 | 3.0 | 7.0 | 0.00 | 0.01 | 0.00 | 72 | 1000.0 |
| 20260510055204 | 68 | 351 | 3.0 | 8.0 | 0.00 | 0.01 | 0.00 | 71 | 1000.0 |
| 20260510054704 | 68 | 0 | 3.0 | 9.0 | 0.00 | 0.01 | 0.00 | 70 | 1000.0 |
| 20260510054204 | 68 | 348 | 5.0 | 9.0 | 0.00 | 0.01 | 0.00 | 68 | 1000.0 |
| 20260510053703 | 68 | 329 | 3.0 | 6.0 | 0.00 | 0.01 | 0.00 | 67 | 1000.0 |
| 20260510053203 | 68 | 328 | 2.0 | 5.0 | 0.00 | 0.01 | 0.00 | 68 | 1000.0 |
| 20260510052704 | 68 | 322 | 1.0 | 3.0 | 0.00 | 0.01 | 0.00 | 68 | 1000.0 |
| 20260510051203 | 69 | 294 | 1.0 | 2.0 | 0.00 | 0.01 | 0.00 | 65 | 1000.0 |
| 20260510050704 | 69 | 316 | 1.0 | 2.0 | 0.00 | 0.01 | 0.00 | 65 | 1000.0 |
| 20260510050204 | 70 | 283 | 2.0 | 3.0 | 0.00 | 0.01 | 0.00 | 64 | 1000.0 |
| 20260510045704 | 70 | 297 | 2.0 | 3.0 | 0.00 | 0.01 | 0.01 | 63 | 1000.0 |
| 20260510045203 | 70 | 283 | 2.0 | 2.0 | 0.00 | 0.01 | 0.01 | 61 | 1000.0 |
| 20260510044703 | 71 | 278 | 2.0 | 3.0 | 0.00 | 0.01 | 0.01 | 59 | 1000.0 |
| 20260510043704 | 71 | 48 | 0.0 | 0.0 | 0.00 | 0.01 | 0.01 | 58 | 1000.0 |
| 20260510042703 | 71 | 48 | 0.0 | 0.0 | 0.00 | 0.01 | 0.01 | 57 | 1000.0 |
| 20260510042204 | 71 | 48 | 0.0 | 0.0 | 0.00 | 0.01 | 0.01 | 57 | 1000.0 |
| 20260510041704 | 71 | 48 | 0.0 | 0.0 | 0.00 | 0.01 | 0.01 | 58 | 1000.0 |
| 20260510041203 | 71 | 48 | 0.0 | 0.0 | 0.00 | 0.01 | 0.01 | 58 | 1000.0 |
| 20260510040703 | 71 | 48 | 0.0 | 0.0 | 0.00 | 0.01 | 0.01 | 58 | 1000.0 |
| 20260510040203 | 72 | 47 | 1.0 | 3.0 | 0.00 | 0.01 | 0.01 | 56 | 1000.0 |
| 20260510035703 | 72 | 5 | 1.0 | 3.0 | 0.00 | 0.01 | 0.01 | 56 | 1000.0 |
| 20260510035204 | 72 | 7 | 1.0 | 2.0 | 0.00 | 0.01 | 0.01 | 56 | 1000.0 |
| 20260510034204 | 72 | 335 | 0.0 | 1.0 | 0.00 | 0.01 | 0.01 | 56 | 1000.0 |
| 20260510033704 | 73 | 358 | 1.0 | 3.0 | 0.00 | 0.01 | 0.01 | 55 | 1000.0 |
| 20260510033204 | 73 | 0 | 1.0 | 5.0 | 0.00 | 0.01 | 0.01 | 55 | 1000.0 |
| 20260510032703 | 73 | 10 | 2.0 | 3.0 | 0.00 | 0.01 | 0.01 | 54 | 1000.0 |
| 20260510032204 | 73 | 341 | 3.0 | 7.0 | 0.00 | 0.01 | 0.01 | 54 | 1000.0 |
| 20260510031204 | 73 | 355 | 4.0 | 8.0 | 0.00 | 0.01 | 0.01 | 55 | 1000.0 |
| 20260510025204 | 73 | 328 | 5.0 | 9.0 | 0.00 | 0.01 | 0.01 | 56 | 1000.0 |
| 20260510024704 | 73 | 313 | 8.0 | 17.0 | 0.00 | 0.01 | 0.01 | 57 | 1000.0 |
| 20260510024204 | 73 | 306 | 7.0 | 13.0 | 0.00 | 0.02 | 0.01 | 55 | 1000.0 |
| 20260510023703 | 74 | 351 | 7.0 | 15.0 | 0.00 | 0.04 | 0.01 | 50 | 1000.0 |
| 20260510023204 | 74 | 238 | 6.0 | 9.0 | 0.00 | 0.05 | 0.01 | 48 | 1000.0 |
| 20260510022704 | 74 | 223 | 7.0 | 10.0 | 0.00 | 0.06 | 0.01 | 46 | 1000.0 |
| 20260510022204 | 75 | 224 | 8.0 | 10.0 | 0.00 | 0.06 | 0.01 | 46 | 1000.0 |
| 20260510021704 | 75 | 222 | 8.0 | 10.0 | 0.00 | 0.07 | 0.01 | 46 | 1000.0 |
| 20260510021203 | 75 | 221 | 8.0 | 10.0 | 0.00 | 0.08 | 0.01 | 46 | 1000.0 |
| 20260510020203 | 75 | 217 | 8.0 | 9.0 | 0.00 | 0.09 | 0.01 | 44 | 1000.0 |
| 20260510015704 | 76 | 213 | 8.0 | 10.0 | 0.00 | 0.11 | 0.01 | 44 | 1000.0 |
| 20260510015203 | 76 | 215 | 7.0 | 9.0 | 0.00 | 0.12 | 0.01 | 44 | 1000.0 |
| 20260510014704 | 76 | 219 | 7.0 | 8.0 | 0.00 | 0.13 | 0.01 | 44 | 1000.0 |
| 20260510014203 | 76 | 215 | 7.0 | 9.0 | 0.00 | 0.14 | 0.01 | 44 | 1000.0 |
| 20260510013704 | 76 | 214 | 7.0 | 9.0 | 0.00 | 0.14 | 0.01 | 43 | 1000.0 |
| 20260510012704 | 76 | 212 | 6.0 | 8.0 | 0.00 | 0.18 | 0.01 | 44 | 1000.0 |
| 20260510012204 | 76 | 208 | 7.0 | 9.0 | 0.00 | 0.19 | 0.01 | 44 | 1000.0 |
| 20260510011703 | 77 | 214 | 5.0 | 7.0 | 0.00 | 0.21 | 0.01 | 44 | 1000.0 |
| 20260510011203 | 77 | 210 | 6.0 | 7.0 | 0.00 | 0.27 | 0.01 | 44 | 1000.0 |
| 20260510010703 | 77 | 213 | 5.0 | 7.0 | 0.00 | 0.29 | 0.01 | 44 | 1000.0 |
| 20260510010203 | 78 | 213 | 6.0 | 7.0 | 0.00 | 0.30 | 0.01 | 43 | 1000.0 |
| 20260510005704 | 78 | 215 | 5.0 | 7.0 | 0.00 | 0.31 | 0.01 | 43 | 1000.0 |
| 20260510005206 | 78 | 220 | 4.0 | 6.0 | 0.00 | 0.33 | 0.01 | 43 | 1000.0 |
| 20260510004704 | 79 | 228 | 3.0 | 6.0 | 0.00 | 0.35 | 0.01 | 43 | 1000.0 |
| 20260510004204 | 79 | 212 | 3.0 | 6.0 | 0.00 | 0.37 | 0.01 | 42 | 1000.0 |
| 20260510003704 | 79 | 212 | 4.0 | 6.0 | 0.00 | 0.37 | 0.01 | 42 | 1000.0 |
| 20260510002704 | 80 | 225 | 4.0 | 7.0 | 0.00 | 0.37 | 0.01 | 41 | 1000.0 |
| 20260510002203 | 80 | 223 | 4.0 | 7.0 | 0.00 | 0.37 | 0.01 | 39 | 1000.0 |
| 20260510001703 | 80 | 225 | 5.0 | 6.0 | 0.00 | 0.37 | 0.01 | 38 | 1000.0 |
| 20260510001204 | 80 | 248 | 5.0 | 7.0 | 0.00 | 0.37 | 0.01 | 38 | 1000.0 |
| 20260510000704 | 80 | 237 | 3.0 | 6.0 | 0.00 | 0.37 | 0.01 | 39 | 1000.0 |
| 20260510000204 | 80 | 233 | 4.0 | 6.0 | 0.00 | 0.37 | 0.01 | 38 | 1000.0 |
| 20260509235203 | 81 | 243 | 3.0 | 7.0 | 0.00 | 0.37 | 0.01 | 37 | 1000.0 |
| 20260509234704 | 81 | 241 | 2.0 | 6.0 | 0.00 | 0.37 | 0.01 | 36 | 1000.0 |
| 20260509234204 | 82 | 234 | 2.0 | 8.0 | 0.00 | 0.37 | 0.01 | 36 | 1000.0 |
| 20260509233703 | 82 | 243 | 5.0 | 8.0 | 0.00 | 0.37 | 0.01 | 35 | 1000.0 |
| 20260509232704 | 82 | 243 | 5.0 | 7.0 | 0.00 | 0.37 | 0.01 | 36 | 1000.0 |
| 20260509232204 | 82 | 227 | 6.0 | 9.0 | 0.00 | 0.37 | 0.01 | 34 | 1000.0 |
| 20260509231704 | 82 | 270 | 4.0 | 9.0 | 0.00 | 0.37 | 0.01 | 35 | 1000.0 |
| 20260509231203 | 82 | 245 | 5.0 | 9.0 | 0.00 | 0.37 | 0.01 | 33 | 1000.0 |
| 20260509230704 | 83 | 227 | 4.0 | 8.0 | 0.00 | 0.37 | 0.01 | 35 | 1000.0 |
| 20260509230204 | 83 | 242 | 3.0 | 6.0 | 0.00 | 0.37 | 0.01 | 35 | 1000.0 |
| 20260509225704 | 82 | 237 | 5.0 | 8.0 | 0.00 | 0.37 | 0.01 | 33 | 1000.0 |
| 20260509224704 | 83 | 240 | 2.0 | 7.0 | 0.00 | 0.37 | 0.01 | 36 | 1000.0 |
| 20260509224225 | 82 | 254 | 5.0 | 8.0 | 0.00 | 0.38 | 0.01 | 35 | 1000.0 |
| 20260509223204 | 83 | 257 | 5.0 | 8.0 | 0.00 | 0.38 | 0.01 | 32 | 1000.0 |
| 20260509222703 | 83 | 279 | 5.0 | 9.0 | 0.00 | 0.39 | 0.01 | 32 | 1000.0 |
| 20260509222204 | 84 | 259 | 3.0 | 7.0 | 0.00 | 0.41 | 0.01 | 33 | 1000.0 |
| 20260509221703 | 84 | 235 | 6.0 | 8.0 | 0.00 | 0.42 | 0.01 | 31 | 1000.0 |
| 20260509221204 | 85 | 293 | 5.0 | 7.0 | 0.00 | 0.43 | 0.01 | 30 | 1000.0 |
| 20260509220704 | 84 | 304 | 3.0 | 10.0 | 0.00 | 0.44 | 0.01 | 30 | 1000.0 |
| 20260509220203 | 84 | 295 | 5.0 | 9.0 | 0.00 | 0.44 | 0.01 | 29 | 1000.0 |
| 20260509215703 | 84 | 272 | 4.0 | 8.0 | 0.00 | 0.44 | 0.01 | 30 | 1000.0 |
| 20260509215204 | 84 | 280 | 5.0 | 8.0 | 0.00 | 0.44 | 0.01 | 30 | 1000.0 |
| 20260509214703 | 84 | 280 | 7.0 | 13.0 | 0.00 | 0.44 | 0.01 | 31 | 1000.0 |
| 20260509214204 | 83 | 262 | 4.0 | 8.0 | 0.00 | 0.44 | 0.01 | 34 | 1000.0 |
| 20260509213704 | 84 | 292 | 5.0 | 8.0 | 0.00 | 0.44 | 0.01 | 32 | 1000.0 |
| 20260509213204 | 83 | 286 | 4.0 | 13.0 | 0.00 | 0.44 | 0.01 | 32 | 1000.0 |
| 20260509212703 | 83 | 303 | 7.0 | 10.0 | 0.00 | 0.44 | 0.01 | 32 | 1000.0 |
| 20260509212204 | 83 | 276 | 5.0 | 13.0 | 0.00 | 0.44 | 0.01 | 32 | 1000.0 |
| 20260509211703 | 84 | 284 | 5.0 | 9.0 | 0.00 | 0.44 | 0.01 | 31 | 1000.0 |
| 20260509211204 | 83 | 257 | 5.0 | 8.0 | 0.00 | 0.44 | 0.01 | 32 | 1000.0 |
| 20260509210704 | 83 | 267 | 3.0 | 9.0 | 0.00 | 0.44 | 0.01 | 36 | 1000.0 |
| 20260509210204 | 83 | 264 | 5.0 | 9.0 | 0.00 | 0.44 | 0.01 | 33 | 1000.0 |
| 20260509205703 | 83 | 282 | 5.0 | 9.0 | 0.00 | 0.44 | 0.01 | 34 | 1000.0 |
| 20260509205203 | 83 | 250 | 5.0 | 10.0 | 0.00 | 0.44 | 0.01 | 34 | 1000.0 |
| 20260509204203 | 83 | 254 | 4.0 | 10.0 | 0.00 | 0.44 | 0.01 | 33 | 1000.0 |
| 20260509203703 | 83 | 306 | 5.0 | 8.0 | 0.00 | 0.44 | 0.01 | 35 | 1000.0 |
| 20260509203204 | 83 | 281 | 3.0 | 9.0 | 0.00 | 0.44 | 0.01 | 37 | 1000.0 |
| 20260509202704 | 83 | 262 | 5.0 | 10.0 | 0.00 | 0.44 | 0.01 | 36 | 1000.0 |
| 20260509202204 | 83 | 227 | 6.0 | 9.0 | 0.00 | 0.44 | 0.01 | 36 | 1000.0 |
| 20260509201704 | 83 | 249 | 3.0 | 9.0 | 0.00 | 0.44 | 0.01 | 36 | 1000.0 |
| 20260509201204 | 83 | 309 | 5.0 | 9.0 | 0.00 | 0.44 | 0.01 | 34 | 1000.0 |
| 20260509200704 | 82 | 254 | 3.0 | 8.0 | 0.00 | 0.44 | 0.01 | 38 | 1000.0 |
| 20260509200204 | 82 | 310 | 6.0 | 9.0 | 0.00 | 0.44 | 0.01 | 37 | 1000.0 |
| 20260509195704 | 82 | 290 | 5.0 | 8.0 | 0.00 | 0.44 | 0.01 | 38 | 1000.0 |
| 20260509195203 | 81 | 246 | 5.0 | 9.0 | 0.00 | 0.44 | 0.01 | 40 | 1000.0 |
| 20260509194703 | 82 | 259 | 4.0 | 9.0 | 0.00 | 0.44 | 0.01 | 38 | 1000.0 |
| 20260509194204 | 82 | 310 | 4.0 | 12.0 | 0.00 | 0.44 | 0.01 | 39 | 1000.0 |
| 20260509193703 | 81 | 320 | 6.0 | 13.0 | 0.00 | 0.44 | 0.01 | 40 | 1000.0 |
| 20260509193203 | 81 | 299 | 6.0 | 12.0 | 0.00 | 0.44 | 0.01 | 39 | 1000.0 |
| 20260509192703 | 81 | 247 | 3.0 | 8.0 | 0.00 | 0.44 | 0.01 | 42 | 1000.0 |
| 20260509192204 | 81 | 246 | 6.0 | 9.0 | 0.00 | 0.44 | 0.01 | 42 | 1000.0 |
| 20260509191704 | 81 | 290 | 2.0 | 8.0 | 0.00 | 0.44 | 0.01 | 41 | 1000.0 |
| 20260509191204 | 80 | 309 | 5.0 | 9.0 | 0.00 | 0.44 | 0.01 | 42 | 1000.0 |
| 20260509190704 | 80 | 287 | 6.0 | 13.0 | 0.00 | 0.44 | 0.01 | 42 | 1000.0 |
| 20260509190203 | 80 | 302 | 6.0 | 14.0 | 0.00 | 0.44 | 0.01 | 42 | 1000.0 |
| 20260509185704 | 80 | 323 | 6.0 | 10.0 | 0.00 | 0.44 | 0.01 | 43 | 1000.0 |
| 20260509184704 | 80 | 246 | 6.0 | 9.0 | 0.00 | 0.44 | 0.01 | 44 | 1000.0 |
| 20260509183703 | 80 | 309 | 5.0 | 9.0 | 0.00 | 0.44 | 0.01 | 43 | 1000.0 |
| 20260509182704 | 79 | 299 | 5.0 | 12.0 | 0.00 | 0.44 | 0.01 | 44 | 1000.0 |
| 20260509181704 | 78 | 311 | 9.0 | 14.0 | 0.00 | 0.44 | 0.01 | 44 | 1000.0 |
| 20260509181204 | 78 | 316 | 10.0 | 15.0 | 0.00 | 0.44 | 0.01 | 43 | 1000.0 |
| 20260509180703 | 78 | 326 | 7.0 | 12.0 | 0.00 | 0.44 | 0.01 | 44 | 1000.0 |
| 20260509180203 | 78 | 325 | 7.0 | 14.0 | 0.00 | 0.44 | 0.01 | 43 | 1000.0 |
| 20260509175204 | 78 | 320 | 6.0 | 16.0 | 0.00 | 0.44 | 0.01 | 44 | 1000.0 |
| 20260509174704 | 78 | 318 | 6.0 | 15.0 | 0.00 | 0.44 | 0.01 | 45 | 1000.0 |
| 20260509174204 | 77 | 306 | 9.0 | 15.0 | 0.00 | 0.44 | 0.01 | 45 | 1000.0 |
| 20260509173704 | 78 | 307 | 8.0 | 17.0 | 0.00 | 0.44 | 0.01 | 45 | 1000.0 |
| 20260509173204 | 78 | 290 | 7.0 | 13.0 | 0.00 | 0.44 | 0.01 | 46 | 1000.0 |
| 20260509172703 | 78 | 287 | 5.0 | 13.0 | 0.00 | 0.44 | 0.01 | 48 | 1000.0 |
| 20260509172204 | 78 | 305 | 5.0 | 13.0 | 0.00 | 0.44 | 0.01 | 49 | 1000.0 |
| 20260509171203 | 77 | 262 | 5.0 | 10.0 | 0.00 | 0.44 | 0.01 | 51 | 1000.0 |
| 20260509170703 | 77 | 277 | 4.0 | 9.0 | 0.00 | 0.44 | 0.01 | 57 | 1000.0 |
| 20260509170203 | 76 | 323 | 4.0 | 9.0 | 0.00 | 0.44 | 0.01 | 58 | 1000.0 |
| 20260509165203 | 75 | 248 | 5.0 | 8.0 | 0.00 | 0.44 | 0.01 | 60 | 1000.0 |
| 20260509164704 | 75 | 228 | 4.0 | 9.0 | 0.00 | 0.44 | 0.01 | 62 | 1000.0 |
| 20260509164204 | 75 | 254 | 5.0 | 9.0 | 0.00 | 0.44 | 0.01 | 62 | 1000.0 |
| 20260509163703 | 74 | 252 | 4.0 | 10.0 | 0.00 | 0.44 | 0.01 | 63 | 1000.0 |
| 20260509163203 | 73 | 238 | 5.0 | 10.0 | 0.00 | 0.44 | 0.01 | 65 | 1000.0 |
| 20260509162703 | 73 | 241 | 5.0 | 9.0 | 0.00 | 0.44 | 0.01 | 66 | 1000.0 |
| 20260509162204 | 73 | 244 | 4.0 | 8.0 | 0.00 | 0.44 | 0.01 | 67 | 1000.0 |
| 20260509161204 | 72 | 238 | 4.0 | 9.0 | 0.00 | 0.44 | 0.01 | 69 | 1000.0 |
| 20260509160704 | 71 | 217 | 4.0 | 8.0 | 0.00 | 0.44 | 0.01 | 69 | 1000.0 |
| 20260509160203 | 71 | 243 | 5.0 | 8.0 | 0.00 | 0.44 | 0.01 | 70 | 1000.0 |
| 20260509155704 | 70 | 242 | 6.0 | 9.0 | 0.00 | 0.44 | 0.01 | 71 | 1000.0 |
| 20260509155204 | 70 | 219 | 5.0 | 9.0 | 0.00 | 0.44 | 0.01 | 72 | 1000.0 |
| 20260509154703 | 70 | 247 | 5.0 | 12.0 | 0.00 | 0.44 | 0.01 | 73 | 1000.0 |
| 20260509154203 | 69 | 231 | 7.0 | 12.0 | 0.00 | 0.44 | 0.01 | 73 | 1000.0 |